DateTimeUTC,F1_A11,F1_S11,BsB_S11,BsG_S11,BsR_S11,BbsB_S11,BbsG_S11,BbsR_S11,BaB_A11,BaG_A11,BaR_A11,Tu_S11,T_S11,Uu_S11,U_S11,P_S11,T1_A11
2021-06-05T15:00:00Z,00000200,20000000,,,,,,,0000.08,0000.08,-000.13,19.8,26.0,08.9,06.1,0675.7,31.1
2021-06-05T15:01:00Z,00000200,20000000,,,,,,,0000.03,0000.24,-000.32,19.8,26.0,08.8,06.0,0675.7,31.1
2021-06-05T15:02:00Z,00000200,20000000,,,,,,,-000.03,-000.17,0000.33,19.8,26.0,08.6,05.9,0675.7,31.1
2021-06-05T15:03:00Z,00000200,60000000,,,,,,,0000.30,0000.17,0000.28,19.8,26.0,08.9,06.1,0675.7,31.1
2021-06-05T15:04:00Z,00000200,40000000,0001.82,0000.67,0000.31,0000.35,-000.06,0000.15,0000.36,0000.30,0000.01,19.9,25.8,08.8,06.2,0676.6,31.1
2021-06-05T15:05:00Z,00000200,00000000,0000.86,0000.70,0000.50,0000.38,-000.13,0000.22,0000.30,0000.20,0000.27,19.9,25.8,09.0,06.3,0676.7,31.1
2021-06-05T15:06:00Z,00000200,00000000,0001.16,0000.46,0000.44,-000.29,-000.09,0000.10,0000.49,0000.59,0000.44,19.9,25.8,08.9,06.3,0676.7,31.1
2021-06-05T15:07:00Z,00000200,00000000,0001.05,0000.45,0000.09,0000.13,0000.17,-000.09,-000.01,0000.48,0000.46,19.9,25.8,09.1,06.4,0676.7,31.1
2021-06-05T15:08:00Z,00000200,00000000,0001.29,0000.50,0000.67,0000.09,0000.27,0000.32,0000.37,0000.03,0000.05,19.9,25.8,08.9,06.3,0676.7,31.1
2021-06-05T15:09:00Z,00000200,00000000,0001.54,0000.89,0000.24,0000.01,-000.11,0000.17,0000.22,0000.39,0000.05,19.9,25.8,09.0,06.3,0676.7,31.1
2021-06-05T15:10:00Z,00000200,00000000,0001.34,0000.53,0000.34,0000.00,-000.12,-000.02,0000.40,0000.20,0000.15,19.9,25.8,09.0,06.3,0676.7,31.1
2021-06-05T15:11:00Z,00000200,00000000,0001.60,0000.60,0000.30,0000.15,0000.19,0000.26,0000.56,0000.51,0000.36,19.9,25.8,08.9,06.2,0676.7,31.1
2021-06-05T15:12:00Z,00000200,00000000,0001.60,0000.63,0000.15,0000.53,0000.05,-000.23,0000.37,0000.05,0000.09,19.9,25.8,09.0,06.3,0676.7,31.1
2021-06-05T15:13:00Z,00000200,00000000,0001.46,0000.57,0000.28,0000.06,0000.15,0000.14,0000.42,0000.31,0000.48,19.9,25.8,09.0,06.3,0676.7,31.1
2021-06-05T15:14:00Z,00000200,00000000,0000.89,0000.36,0000.24,-000.06,0000.16,0000.09,0000.16,0000.52,0000.15,19.9,25.8,09.2,06.4,0676.6,31.1
2021-06-05T15:15:00Z,00000200,00000000,0000.81,0000.85,0000.37,0000.73,0000.28,0000.16,0000.35,-000.06,0000.42,19.9,25.8,09.0,06.3,0676.6,31.1
2021-06-05T15:16:00Z,00000200,00000000,0000.84,0000.72,0000.24,-000.38,0000.25,-000.02,0000.38,0000.73,-000.21,19.9,25.8,08.9,06.3,0676.6,31.1
2021-06-05T15:17:00Z,00000200,00000000,0000.92,0000.62,0000.20,0000.31,0000.09,0000.04,0000.44,0000.17,0000.42,19.9,25.8,08.9,06.3,0676.7,31.1
2021-06-05T15:18:00Z,00000200,00000000,0002.13,0000.52,0000.32,-000.17,0000.36,0000.03,0000.51,0000.42,0000.08,19.9,25.8,09.0,06.3,0676.7,31.1
2021-06-05T15:19:00Z,00000200,00000000,0001.38,0000.56,0000.11,-000.49,0000.09,0000.04,0000.41,0000.20,0000.61,19.9,25.8,09.1,06.4,0676.7,31.1
2021-06-05T15:20:00Z,00000200,00000000,0001.19,0000.82,0000.26,-000.31,0000.15,0000.46,0000.20,0000.35,0000.44,19.9,25.8,09.1,06.4,0676.7,31.1
2021-06-05T15:21:00Z,00000200,00000000,0000.95,0001.00,0000.49,0000.40,0000.35,0000.15,0000.64,0000.61,0000.43,19.9,25.8,09.2,06.5,0676.7,31.1
2021-06-05T15:22:00Z,00000200,00000000,0001.34,0000.75,0000.38,-000.01,0000.12,0000.04,0000.54,0000.37,0000.36,19.9,25.8,09.2,06.4,0676.7,31.1
2021-06-05T15:23:00Z,00000200,00000000,0000.93,0000.79,0000.17,0000.31,0000.01,-000.24,0000.21,0000.59,0000.02,19.9,25.8,09.4,06.6,0676.7,31.1
2021-06-05T15:24:00Z,00000200,00000000,0000.45,0000.43,0000.24,0000.12,-000.18,-000.02,0000.39,0000.25,0000.08,19.9,25.8,09.2,06.5,0676.7,31.1
2021-06-05T15:25:00Z,00000200,00000000,0001.06,0000.65,0000.25,-000.04,-000.04,0000.03,0000.10,-000.03,0000.22,19.9,25.8,09.2,06.5,0676.6,31.1
2021-06-05T15:26:00Z,00000200,00000000,0001.42,0000.58,0000.58,0000.06,0000.33,0000.07,0000.57,0000.85,0000.28,19.9,25.8,09.4,06.6,0676.7,31.1
2021-06-05T15:27:00Z,00000200,00000000,0001.64,0000.40,0000.67,-000.43,0000.10,0000.53,0000.60,0000.33,0000.57,19.9,25.8,09.6,06.7,0676.7,31.1
2021-06-05T15:28:00Z,00000200,00000000,0001.72,0000.63,0000.52,-000.25,0000.08,0000.02,0000.05,0000.16,0000.16,19.9,25.8,09.6,06.7,0676.6,31.1
2021-06-05T15:29:00Z,00000200,00000000,0001.51,0001.13,0000.65,-000.09,0000.19,0000.09,0000.75,0000.69,0000.27,19.9,25.8,09.6,06.7,0676.6,31.1
2021-06-05T15:30:00Z,00000200,00000000,0001.56,0000.56,0000.17,0000.31,0000.22,-000.02,0000.12,0000.01,0000.17,19.9,25.8,09.4,06.6,0676.6,31.1
2021-06-05T15:31:00Z,00000200,00000000,0001.07,0000.89,0000.39,0000.22,0000.13,0000.12,0000.59,0000.18,0000.28,19.9,25.8,09.4,06.6,0676.6,31.1
2021-06-05T15:32:00Z,00000200,00000000,0001.47,0000.63,0000.43,-000.14,0000.18,0000.19,0000.40,0000.64,0000.20,19.9,25.8,09.5,06.7,0676.6,31.1
2021-06-05T15:33:00Z,00000200,00000000,0001.57,0000.99,0000.23,-000.09,0000.09,0000.03,-000.01,-000.06,-000.18,19.9,25.8,09.4,06.6,0676.6,31.1
2021-06-05T15:34:00Z,00000200,00000000,0000.74,0000.88,0000.45,0000.30,0000.31,0000.19,-000.04,0000.36,0000.68,19.9,25.8,09.3,06.6,0676.6,31.1
2021-06-05T15:35:00Z,00000200,00000000,0001.48,0000.69,0000.50,-000.24,0000.32,0000.00,0000.54,0000.19,0000.28,19.9,25.8,09.3,06.5,0676.6,31.1
2021-06-05T15:36:00Z,00000200,00000000,0001.56,0000.66,0000.66,-000.02,0000.30,0000.25,0000.31,0000.51,0000.10,19.9,25.8,09.4,06.6,0676.6,31.1
2021-06-05T15:37:00Z,00000200,00000000,0001.25,0000.83,0000.30,0000.44,-000.13,-000.06,0000.30,0000.14,-000.10,19.9,25.8,09.3,06.5,0676.6,31.1
2021-06-05T15:38:00Z,00000200,00000000,0001.62,0000.89,0000.21,-000.16,-000.13,0000.10,0000.62,0000.77,0000.55,19.9,25.8,09.3,06.5,0676.6,31.1
2021-06-05T15:39:00Z,00000200,00000000,0000.98,0000.77,0000.47,0000.41,0000.14,0000.10,0000.28,0000.26,0000.11,19.9,25.8,09.3,06.6,0676.6,31.1
2021-06-05T15:40:00Z,00000200,00000000,0001.79,0000.88,0000.74,0000.13,0000.12,0000.56,0000.39,0000.09,0000.36,19.9,25.8,09.4,06.5,0676.6,31.1
2021-06-05T15:41:00Z,00000200,00000000,0000.99,0000.58,0000.32,0000.20,0000.11,0000.29,0000.82,0000.47,0000.23,19.9,25.8,09.5,06.7,0676.6,31.1
2021-06-05T15:42:00Z,00000200,00000000,0001.08,0000.84,0000.39,0000.72,0000.14,0000.00,0000.16,0000.31,0000.41,19.9,25.8,09.4,06.6,0676.5,31.1
2021-06-05T15:43:00Z,00000200,00000000,0001.88,0000.85,0000.75,0000.56,0000.28,0000.31,0000.55,0000.63,0000.50,19.9,25.8,09.4,06.6,0676.6,31.1
2021-06-05T15:44:00Z,00000200,00000000,0001.69,0000.78,0000.56,-000.17,0000.25,0000.24,0000.52,0000.36,0000.23,19.9,25.8,09.5,06.6,0676.5,31.1
2021-06-05T15:45:00Z,00000200,00000000,0001.67,0000.93,0000.23,0000.44,0000.12,0000.24,0000.16,0000.17,-000.05,19.9,25.8,09.6,06.7,0676.5,31.1
2021-06-05T15:46:00Z,00000200,00000000,0001.69,0000.64,0000.44,0000.46,0000.02,0000.21,0000.81,0000.54,0000.74,19.9,25.8,09.5,06.6,0676.5,31.1
2021-06-05T15:47:00Z,00000200,00000000,0002.07,0000.78,0000.56,-000.09,0000.30,0000.34,0000.15,0000.17,0000.10,19.9,25.8,09.5,06.7,0676.5,31.1
2021-06-05T15:48:00Z,00000200,00000000,0000.97,0000.88,0000.47,-000.03,-000.31,-000.17,0000.31,0000.18,0000.21,19.9,25.8,09.6,06.7,0676.6,31.1
2021-06-05T15:49:00Z,00000200,00000000,0001.23,0000.94,0000.37,0000.58,0000.24,0000.18,0000.24,0000.44,-000.03,19.9,25.8,09.6,06.7,0676.5,31.1
2021-06-05T15:50:00Z,00000200,00000000,0001.83,0000.95,0000.32,0000.50,0000.52,0000.00,0000.77,0000.59,0000.83,19.9,25.8,09.4,06.6,0676.5,31.1
2021-06-05T15:51:00Z,00000200,00000000,0001.56,0000.92,0000.93,0000.40,-000.01,0000.04,0000.33,0000.65,0000.17,19.9,25.8,09.6,06.7,0676.6,31.1
2021-06-05T15:52:00Z,00000200,00000000,0000.79,0001.12,0000.64,0000.51,0000.03,0000.38,0000.36,-000.29,0000.13,19.8,25.8,09.5,06.6,0676.5,31.1
2021-06-05T15:53:00Z,00000200,00000000,0001.45,0000.99,0000.49,0000.04,0000.24,0000.02,0000.26,0000.20,0000.36,19.9,25.8,09.5,06.6,0676.5,31.1
2021-06-05T15:54:00Z,00000200,00000000,0001.78,0000.62,0000.34,0000.47,0000.15,0000.40,0000.75,0001.03,0000.52,19.9,25.8,09.6,06.7,0676.6,31.1
2021-06-05T15:55:00Z,00000200,00000000,0001.54,0000.84,0000.48,0000.32,0000.32,-000.04,0000.15,0000.23,0000.28,19.9,25.8,09.7,06.8,0676.6,31.1
2021-06-05T15:56:00Z,00000200,00000000,0000.96,0000.90,0000.25,-000.31,0000.17,-000.08,0000.17,0000.19,0000.11,19.8,25.8,09.6,06.7,0676.5,31.1
2021-06-05T15:57:00Z,00000200,40000000,,,,,,,0000.46,-000.13,0000.21,19.9,25.8,09.0,06.3,0676.5,31.1
2021-06-05T15:58:00Z,00000200,60000000,,,,,,,-000.17,0000.15,-000.15,19.7,25.9,09.5,06.5,0675.6,31.1
2021-06-05T15:59:00Z,00000200,20000000,,,,,,,-000.21,0000.21,0000.14,19.7,26.0,09.5,06.5,0675.5,31.1
